Reflectivity
-20 -20 -20 -20 -20 -20 -20 -20 -20 -20 -20 -20 -20 -20 -20 -20 -20 -20 -20 -20 -20 -20 -20 -20 -20 -20 -20 -20 -20 -20 -20 -20 -20 -20 -20 -20 -20 -20 -20 -20 -20 -20 -20 -20 -20
-20 -20 -20 -20 -20 -20 -20 -20 -20 -20 -20 -20 -20 -20 -20 -20 -20 -20 -20 -20 -20 -20 -20 -20 -20 -20 -20 -20 -20 -20 -20 -20 -20 -20 -20 -20 -20 -20 -20 -20 -20 -20 -20 -20 -20
-20 -20 -20 -20 -20 -20 -20 -20 -20 -20 -20 -20 -20 -20 -20 -20 -20 -20 -20 -20 -20 -20 -20 -20 -20 -20 -20 -20 -20 -20 -20 -20 -20 -20 -20 -20 -20 -20 -20 -20 -20 -20 -20 -20 -20
-20 -20 -20 -20 -20 -20 -20 -20 -20 -20 -20 -20 -20 -20 -20 -20 -20 -20 -20 -20 -20 -20 -20 -20 -20 -20 -20 -20 -20 -20 -20 -20 -20 -20 -20 -20 -20 -20 -20 -20 -20 -20 -20 -20 -20
-20 -20 -20 -20 -20 -20 -20 -20 -20 -20 -20 -20 -20 -20 -20 -20 -20 -20 -20 -20 -20 -20 -20 -20 -20 -20 -20 -20 -20 -20 -20 -20 -20 -20 -20 -20 -20 -20 -20 -20 -20 -20 -20 -20 -20
-20 -20 -20 -20 -20 -20 -20 -20 -20 -20 -20 -20 -20 -20 -20 -20 -20 -20 -20 -20 -20 -20 -20 -20 -20 -20 -20 -20 -20 -20 -20 -20 -20 -20 -20 -20 -20 -20 -20 -20 -20 -20 -20 -20 -20
-20 -20 -20 -20 -20 -20 -20 -20 -20 -20 -20 -20 -20 -20 -20 -20 -20 -20 -20 -20 -20 -20 -20 -20 -20 -20 -20 -20 -20 -20 -20 -20 -20 -20 -20 -20 -20 -20 -20 -20 -20 -20 -20 -20 -20
-20 -20 -20 -20 -20 -20 -20 -20 -20 -20 -20 -20 -20 -20 -20 -20 -20 -20 -20 -20 -20 -20 -20 -20 -20 -20 -20 -20 -20 -20 -20 -20 -20 -20 -20 -20 -20 -20 -20 -20 -20 -20 -20 -20 -20
-20 -20 -20 -20 -20 -20 -20 -20 -20 -20 -20 -20 -20 -20 -20 -20 -20 -20 -20 -20 -20 -20 -20 -20 -20 -20 -20 -20 -20 -20 -20 -20 -20 -20 -20 -20 -20 -20 -20 -20 -20 -20 -20 -20 -20
-20 -20 -20 -20 -20 -20 -20 -20 -20 -20 -20 -20 -20 -20 -20 -20 -20 -20 -20 -20 -20 -20 -20 -20 -20 -20 -20 -20 -20 -20 -20 -20 -20 -20 -20 -20 -20 -20 -20 -20 -20 -20 -20 -20 -20
-20 -20 -20 -20 -20 -20 -20 -20 -20 -20 -20 -20 -20 -20 -20 -20 -20 -20 -20 -20 -20 -20 -20 -20 -20 -20 -20 -20 -20 -20 -20 -20 -20 -20 -20 -20 -20 -20 -20 -20 -20 -20 -20 -20 -20
-20 -20 -20 -20 -20 -20 -20 -20 -20 -20 -20 -20 -20 -20 -20 -20 -20 -20 -20 -20 -20 -20 -20 -20 -20 -20 -20 -20 -20 -20 -20 -20 -20 -20 -20 -20 -20 -20 -20 -20 -20 -20 -20 -20 -20
-20 -20 -20 -20 -20 -20 -20 -20 -20 -20 -20 -20 -20 -20 -20 -20 -20 -20 -20 -20 -20 -20 -20 -20 -20 -20 -20 -20 -20 -20 -20 -20 -20 -20 -20 -20 -20 -20 -20 -20 -20 -20 -20 -20 -20
-20 -20 -20 -20 -20 -20 -20 -20 -20 -20 -20 -20 -20 -20 -20 -20 -20 -20 -20 -20 -20 -20 -20 -20 -20 -20 -20 -20 -20 -20 -20 -20 -20 -20 -20 -20 -20 -20 -20 -20 -20 -20 -20 -20 -20
-20 -20 -20 -20 -20 -20 -20 -20 -20 -20 -20 -20 -20 -20 -20 -20 -20 -20 -20 -20 -20 -20 -20 -20 -20 -20 -20 -20 -20 -20 -20 -20 -20 -20 -20 -20 -20 -20 -20 -20 -20 -20 -20 -20 -20
3 -16 -20 -20 -20 -20 -20 -20 -20 -20 -20 -20 -20 -20 -20 -20 -20 -20 -20 -20 -20 -20 -20 -20 -20 -20 -20 -20 -20 -20 -20 -20 -20 -20 -20 -20 -20 -20 -20 -20 -20 -20 -20 -20 -20
3 2 -12 -20 -20 -20 -20 -20 -20 -20 -20 -20 -20 -20 -20 -20 -20 -20 -20 -20 -20 -20 -20 -20 -20 -20 -20 -20 -20 -20 -20 -20 -20 -20 -20 -20 -20 -20 -20 -20 -20 -20 -20 -20 -20
1 14 -2 -20 -20 -20 -20 -20 -20 -20 -20 -20 -20 -20 -20 -20 -20 -20 -20 -20 -20 -20 -20 -20 -20 -20 -20 -20 -20 -20 -20 -20 -20 -20 -20 -20 -20 -20 -20 -20 -20 -20 -20 -20 -20
-20 13 -19 -20 -20 -20 -20 -20 -20 -20 -20 -20 -20 -20 -20 -20 -20 -20 -20 -20 -20 -20 -20 -20 -20 -20 -20 -20 -20 -20 -20 -20 -20 -20 -20 -20 -20 -20 -20 -20 -20 -20 -20 -20 -20
-4 -18 11 -20 -20 -20 -20 -20 -20 -20 -20 -20 -20 -20 -20 -20 -20 -20 -20 -20 -20 -20 -20 -20 -20 -20 -20 -20 -20 -20 -20 -20 -20 -20 -20 -20 -20 -20 -20 -20 -20 -20 -20 -20 -20
-20 19 8 -20 -20 -20 -20 -20 -20 -20 -20 -20 -20 -20 -20 -20 -20 -20 -20 -20 -20 -20 -20 -20 -20 -20 -20 -20 -20 -20 -20 -20 -20 -20 -20 -20 -20 -20 -20 -20 -20 -20 -20 -20 -20
-18 8 1 -5 -20 -20 -20 -20 -20 -20 -20 -20 -20 -20 -20 -20 -20 -20 -20 -20 -20 -20 -20 -20 -20 -20 -20 -20 -20 -20 -20 -20 -20 -20 -20 -20 -20 -20 -20 -20 -20 -20 -20 -20 -20
12 -8 -2 18 2 -20 -20 -20 -20 -20 -20 -20 -20 -20 -20 -20 -20 -20 -20 -20 -20 -20 -20 -20 -20 -20 -20 -20 -20 -20 -20 -20 -20 -20 -20 -20 -20 -20 -20 -20 -20 -20 -20 -20 -20
-14 4 11 21 11 5 -5 -20 -20 -20 -20 -20 -20 -20 -20 -20 -20 -20 -20 -20 -20 -20 -20 -20 -20 -20 -20 -20 -20 -20 -20 -20 -20 -20 -20 -20 -20 -20 -20 -20 -20 -20 -20 -20 -20
18 9 2 11 10 8 1 3 -17 -20 -20 -20 -20 -20 -20 -20 -20 -20 -20 -20 -20 -20 -20 -20 -20 -20 -20 -20 -20 -20 -20 -20 -20 -20 -20 -20 -20 -20 -20 -20 -20 -20 -20 -20 -20
17 14 13 12 4 7 -20 -1 6 -16 -20 -20 -20 -20 -20 -20 -20 -20 -20 -20 -20 -20 -20 -20 -20 -20 -20 -20 -20 -20 -20 -20 -20 -20 -20 -20 -20 -20 -20 -20 -20 -20 -20 -20 -20
-1 16 9 13 19 13 -8 -7 -19 -20 -20 -20 -20 -20 -20 -20 -20 -20 -20 -20 -20 -20 -20 -20 -20 -20 -20 -20 -20 -20 -20 -20 -20 -20 -20 -20 -20 -20 -20 -20 -20 -20 -20 -20 -20
Wind_Speed
11 12 12 13 13 14 14 14 14 14 13 14 16 15 14 15 19 8 8 6 6 8 8 11 8 2 4 2 2 2 7 7 5 4 6 7 6 3 2 4 4 5 3 8 15
11 11 12 12 13 14 14 15 15 15 14 14 16 16 15 15 13 12 5 4 5 7 9 7 5 4 3 2 3 7 8 1 6 4 1 6 6 6 6 7 7 7 9 8 14
10 11 11 12 13 14 14 14 16 16 15 15 16 15 14 13 11 2 3 2 5 8 9 7 5 6 3 4 2 3 6 6 4 4 2 2 5 4 7 7 7 8 13 12 13
9 10 11 12 13 14 14 14 16 17 17 16 16 15 16 8 5 5 3 3 6 9 9 6 5 4 4 6 2 6 1 3 3 2 2 4 2 6 10 8 3 2 1 14 15
7 9 11 11 13 14 15 15 17 18 18 17 16 14 10 9 4 6 1 6 8 7 5 6 7 2 5 2 4 4 3 1 3 2 3 2 8 8 9 8 7 4 6 11 12
8 9 11 12 13 14 15 16 18 18 17 17 15 14 9 12 4 2 2 3 4 6 3 5 4 4 1 0 5 2 2 3 4 4 3 5 7 2 3 5 10 11 11 11 13
9 11 11 11 12 14 15 16 18 18 17 15 12 6 8 9 2 1 2 1 3 4 3 3 4 7 1 3 2 2 5 5 7 5 3 4 11 11 8 7 8 11 12 13 13
10 10 11 11 12 14 15 17 19 19 15 10 7 9 8 3 3 4 4 2 1 1 2 2 2 0 5 1 5 5 6 9 7 5 5 4 4 9 8 9 9 10 11 13 14
9 11 10 12 13 15 17 20 20 14 6 8 7 7 8 4 6 4 5 5 1 1 1 1 4 3 4 7 7 8 3 3 7 5 1 7 7 8 8 9 9 9 10 11 13
8 9 11 11 14 15 19 22 9 8 5 6 4 7 7 1 2 2 3 4 4 3 5 6 6 8 7 8 4 3 4 3 4 6 7 10 14 12 12 13 13 13 12 12 13
7 9 9 11 13 15 16 6 6 7 9 8 1 4 0 3 4 6 5 6 6 8 10 4 8 7 4 4 5 5 5 6 2 4 5 9 11 11 10 12 12 12 12 13 14
8 8 10 11 12 13 10 5 5 4 9 12 14 7 4 2 4 7 5 7 7 10 3 6 10 5 1 0 4 5 7 6 2 1 4 10 14 13 11 11 10 9 11 13 13
8 8 10 13 13 9 5 5 5 5 7 5 9 12 11 7 7 9 9 5 9 10 9 13 6 3 3 4 6 6 7 7 6 9 13 11 13 12 11 9 8 8 8 10 13
7 7 8 16 7 6 0 4 6 3 7 9 7 4 7 6 6 1 6 5 5 9 5 9 6 5 6 7 5 9 4 3 5 7 3 2 5 11 14 12 11 11 11 10 11
6 5 4 6 10 5 5 8 6 5 8 7 5 3 4 12 6 5 1 5 8 6 5 4 5 8 9 4 3 4 1 4 5 8 9 10 6 3 13 11 12 12 11 9 10
8 5 2 6 5 5 8 8 5 7 9 4 5 7 10 12 4 4 7 3 4 3 8 5 1 4 3 4 2 3 5 7 5 5 7 11 9 8 10 15 13 12 11 10 10
9 7 6 5 5 5 9 5 7 9 4 6 5 7 12 10 11 8 11 12 10 6 13 11 12 4 4 5 4 7 7 4 5 6 3 3 6 9 7 7 13 14 13 12 11
9 7 8 8 4 6 6 8 13 2 11 4 2 7 9 8 10 11 9 14 17 12 8 10 8 14 12 10 5 13 8 6 5 3 3 4 8 3 5 9 8 12 12 12 11
2 3 4 5 7 5 7 14 7 13 1 5 7 8 11 8 5 11 16 16 16 16 9 7 4 3 2 2 4 7 8 4 6 3 5 6 8 6 8 11 12 13 12 12 12
0 1 5 7 8 7 9 21 15 1 1 8 10 12 9 13 10 10 11 8 19 14 20 3 5 3 5 3 7 6 5 4 6 5 6 8 7 5 15 18 16 16 15 13 12
1 3 1 9 9 8 15 20 23 5 4 7 9 6 9 8 15 9 4 4 11 9 17 10 8 6 5 12 12 7 7 7 5 5 4 3 3 5 14 19 20 18 16 15 14
2 4 2 7 9 6 14 19 12 12 11 7 6 8 10 9 10 12 10 9 4 9 10 17 7 11 10 5 4 10 13 16 6 6 5 3 6 1 3 13 16 17 16 15 14
4 2 3 3 7 12 9 18 25 20 17 12 9 8 6 7 7 14 5 5 8 12 8 13 9 8 7 3 4 9 14 15 18 4 10 5 3 1 3 2 14 16 16 15 15
3 4 1 2 4 5 18 18 22 18 22 19 15 16 9 11 12 4 7 4 8 10 4 4 11 13 11 5 3 8 15 21 19 10 10 15 13 7 3 4 10 13 15 16 15
5 4 5 5 7 8 11 8 20 21 20 14 19 21 16 18 17 16 12 5 7 7 4 7 10 15 20 19 5 10 10 19 24 25 16 15 20 20 16 5 8 14 14 15 16
4 5 2 1 7 21 19 22 25 19 26 22 23 17 24 23 20 14 18 14 11 12 11 8 10 10 18 16 18 21 20 16 21 24 25 25 24 18 14 12 10 11 16 16 16
7 7 3 5 6 8 15 21 23 20 25 28 21 21 25 22 23 22 18 10 10 10 16 11 9 11 16 17 10 18 26 26 24 19 21 22 24 14 18 16 19 17 13 16 17
Wind_Direction
21 15 9 5 1 357 355 352 351 346 341 337 335 329 327 325 306 225 263 15 331 333 306 271 258 254 239 154 267 257 249 227 190 219 114 143 198 149 66 186 202 170 328 96 133
9 11 4 359 356 352 350 347 346 342 338 333 331 327 324 327 292 274 73 0 313 308 278 302 275 284 203 190 202 242 240 275 42 45 157 167 231 146 217 196 200 188 123 141 151
357 355 355 354 350 347 344 342 341 338 334 331 326 322 318 315 273 105 68 332 291 279 282 292 277 277 236 240 176 180 301 100 95 48 349 187 226 214 231 242 237 207 181 172 178
349 346 341 341 342 340 337 335 337 334 331 326 323 318 316 266 317 73 51 298 279 282 273 269 245 233 240 218 195 220 66 10 115 93 229 240 294 239 234 255 78 217 167 170 191
346 342 339 333 333 333 331 329 330 329 326 321 318 317 306 237 266 105 167 222 261 269 294 295 267 241 226 196 209 247 146 171 126 190 249 292 252 263 261 231 191 203 188 187 199
334 336 335 332 327 326 325 323 323 321 318 315 310 308 259 264 68 82 347 258 304 278 322 291 332 327 67 277 273 85 193 161 187 197 224 259 256 274 200 211 220 194 210 208 208
329 333 336 331 323 318 319 319 315 312 310 307 296 287 265 273 24 302 227 332 327 313 293 0 322 267 314 173 180 184 217 194 208 211 242 281 249 228 231 186 201 208 217 213 206
325 332 333 328 321 315 315 314 307 305 300 289 280 265 268 91 320 226 212 184 221 61 54 344 304 292 296 104 206 230 234 214 141 194 145 236 95 188 168 195 219 214 207 204 209
322 326 332 327 320 316 313 306 298 292 271 273 255 245 263 135 211 200 242 259 187 196 92 231 259 289 192 232 203 202 283 219 160 204 249 228 317 143 190 212 229 224 214 206 208
312 320 323 325 323 321 315 292 287 286 220 227 266 256 208 231 104 210 188 231 244 232 219 228 235 242 222 229 343 23 263 178 282 136 230 253 261 262 206 221 239 242 233 212 208
298 312 318 320 324 321 325 295 216 194 212 247 343 253 184 111 195 214 184 205 227 235 251 190 260 231 24 9 339 323 297 283 291 93 284 254 265 262 245 224 237 241 231 215 209
294 309 315 317 318 309 289 339 51 342 298 242 240 259 238 324 219 204 192 221 209 242 207 225 241 47 52 350 295 289 292 289 268 44 271 286 279 266 240 222 229 231 217 213 203
286 308 312 311 309 289 345 64 341 308 260 224 226 229 212 208 232 192 197 219 245 243 233 265 55 126 223 220 259 248 289 324 311 317 245 282 262 220 204 203 206 221 229 206 203
283 300 318 307 280 349 200 347 326 278 273 177 191 188 181 211 230 94 219 254 219 261 240 262 103 196 227 255 272 285 52 299 301 305 309 296 314 189 173 201 202 206 196 203 204
257 277 314 321 314 283 5 320 310 231 277 110 148 80 149 190 122 157 135 203 251 210 226 74 187 209 235 269 232 27 11 294 296 287 302 209 250 160 177 202 199 198 179 186 187
260 234 230 235 256 310 309 310 249 229 248 127 139 177 167 205 162 128 180 225 344 235 240 287 8 247 293 103 272 100 240 237 263 268 247 213 229 186 184 210 189 179 171 172 180
252 218 200 310 313 326 302 234 222 243 122 149 193 186 200 181 206 204 184 193 207 205 224 207 215 149 195 200 180 218 245 216 210 201 263 137 214 285 147 191 182 175 175 174 176
302 180 216 258 312 298 265 222 236 309 243 95 215 190 197 182 217 198 212 219 216 250 285 210 188 188 183 234 307 203 251 276 276 228 111 170 228 212 195 163 171 172 169 172 181
234 206 251 224 228 253 237 221 226 236 190 181 161 200 200 200 270 209 226 230 220 202 226 209 200 105 252 217 274 151 218 12 289 217 267 203 227 209 182 180 176 175 173 188 187
203 217 232 186 188 217 228 232 223 124 131 208 233 199 209 191 206 200 213 214 226 209 228 290 251 204 130 225 230 268 359 195 213 248 239 202 249 237 186 193 188 189 192 192 188
117 257 284 177 185 218 226 222 235 173 220 232 246 248 254 175 209 198 256 177 211 207 214 226 239 125 174 207 202 188 221 224 300 266 277 295 202 27 197 198 192 193 192 191 188
184 244 337 246 198 212 228 221 255 252 198 259 280 272 257 213 212 226 241 228 187 167 200 214 269 237 218 107 303 279 227 219 245 194 253 324 283 27 307 194 195 194 191 194 191
248 267 12 327 211 218 224 233 238 244 231 226 239 234 223 228 231 215 232 48 168 193 204 173 222 230 207 204 198 228 222 242 236 292 236 207 230 107 131 280 193 197 197 195 191
281 221 192 240 292 272 222 218 224 228 244 242 251 251 233 237 233 287 228 167 200 223 32 230 253 231 226 44 84 208 214 212 221 225 231 229 259 164 134 205 218 215 205 199 195
212 254 184 192 229 235 247 226 216 230 228 223 242 240 237 244 239 228 242 178 188 202 221 223 245 241 252 271 225 268 217 211 220 229 240 248 238 251 263 279 218 215 220 211 205
257 221 164 189 209 221 225 227 239 218 233 220 237 235 234 243 242 236 234 229 233 181 202 216 242 251 265 264 261 250 244 222 225 236 245 257 267 266 276 276 280 242 214 217 218
231 275 262 192 207 207 222 230 233 233 234 238 246 228 242 241 249 262 269 259 268 185 203 200 223 232 262 257 270 261 238 233 227 220 226 236 241 245 262 246 243 241 237 224 221